User: anonymous   Login
Location: Newark
(54.3386°S, 169.8415°W)
Time: 04:41:46
(UTC+00:00)
Language:

Tiros 1 - Orbit

View from above orbital plane
View from above orbital plane
View from above satellite
View from above satellite

Ground track
Ground track

The orbit data is extracted from the following two-line orbital elements,

1    29U 60002B   19292.72260276 -.00000119  00000-0  13183-4 0  9996
2    29  48.3813   9.3926 0024626 277.8324  81.9792 14.74323276182985
Epoch (UTC): 19 October 2019 17:20:32
Eccentricity: 0.0024626
inclination: 48.3813°
perigee height: 630 km
apogee height: 664 km
right ascension of ascending node: 9.3926°
argument of perigee: 277.8324°
revolutions per day: 14.74323276
mean anomaly at epoch: 81.9792°
orbit number at epoch: 18298

The dashed part of the orbit path shows where the satellite is in the earth's shadow,  

DLR